Погода в Селищах

Россия / Республика Мордовия     54°28′05″N   43°30′32″E
темп.,
°C
ветер,
м/с
пор.,
м/с
влажн.,
%
обл.,
%
осадки,
мм/ч
давл.,
гПа
погр.,
м
4 декабря, сб
сб400:00+4ююз91892100 0.1 1004681
03:00+5ююз101991100 0.5 1001864
06:000зсз81497100 4.0 1002557
09:000зюз61186100 4.9 1005788
12:00+1зюз712726 0.0 1007943
15:00−1зюз6117738 0.0 1008932
18:00−2зюз6117955 0.0 1010819
21:00−2зюз6107682 0.0 1011935
5 декабря, вс
вс500:00−3з5107828 0.0 1012774
03:00−3з498036 0.0 1014695
06:00−3з37815 0.0 1015547
09:00−3зюз24845 0.0 1016328
12:00−2зюз2476100 0.0 1017441
15:00−1юз2378100 0.0 1018182
18:00−2юз228354 0.0 101844
21:00−2юз22855 0.0 101929
6 декабря, пн
пн600:00−3юз22875 0.0 102122
03:00−3ююз129098 0.0 102214
06:00−3ю229098 0.0 102231
09:00−3ююв2486100 0.0 102498
12:00−1ююв3574100 0.0 1024242
15:00−1юв3674100 0.0 1024234
18:00−2юв4774100 0.0 1025252
21:00−2юв4107197 0.0 1025351
7 декабря, вт
вт700:00−2юв5117293 0.0 1025389
03:00−3юв5127598 0.0 1025434
06:00−2юв61373100 0.0 1024518
09:00−2юв81571100 0.0 1023609
12:00−2ююв81792100 0.6 1021607
15:00−1ююв91890100 1.6 1018656
18:000ююв81794100 2.7 1017589
21:00+1ю81696100 4.0 1016539
8 декабря, ср
ср800:00+2ю81896100 4.5 1015477
03:00+3ю71891100 4.8 1015558
06:00+3ю81890100 0.0 1015583
09:00+3ююз71689100 0.0 1015510
12:00+3ююз61491100 0.0 1016492
15:00+2ююв41094100 0.0 1016254
18:00+1ююв41095100 0.0 1017217
21:00+1ююв41194100 0.0 1017279